Time,TemperatureF,DewpointF,PressureIn,WindDirection,WindDirectionDegrees,WindSpeedMPH,WindSpeedGustMPH,Humidity,HourlyPrecipIn,Conditions,Clouds,dailyrainin,SoftwareType,DateUTC
2013-06-06 00:03:00,58.0,44.0,-100.00,East,80,6.0,8.0,60,-99.99,,,-99.99,,2013-06-06 04:03:00,
2013-06-06 00:13:00,58.0,44.0,-100.00,East,90,6.0,7.0,61,-99.99,,,-99.99,,2013-06-06 04:13:00,
2013-06-06 00:23:00,58.0,45.0,-100.00,ENE,75,5.0,9.0,62,-99.99,,,-99.99,,2013-06-06 04:23:00,
2013-06-06 00:33:00,58.0,46.0,-100.00,ENE,75,6.0,9.0,63,-99.99,,,-99.99,,2013-06-06 04:33:00,
2013-06-06 00:42:00,58.0,46.0,-100.00,ENE,70,6.0,9.0,63,-99.99,,,-99.99,,2013-06-06 04:42:00,
2013-06-06 00:53:00,58.0,46.0,-100.00,ENE,70,6.0,10.0,63,-99.99,,,-99.99,,2013-06-06 04:53:00,
2013-06-06 01:02:00,58.0,46.0,-100.00,ENE,60,7.0,9.0,64,-99.99,,,-99.99,,2013-06-06 05:02:00,
2013-06-06 01:12:00,58.0,46.0,-100.00,NE,55,7.0,10.0,63,-99.99,,,-99.99,,2013-06-06 05:12:00,
2013-06-06 01:22:00,58.0,46.0,-100.00,ENE,60,7.0,9.0,63,-99.99,,,-99.99,,2013-06-06 05:22:00,
2013-06-06 01:32:00,58.0,46.0,-100.00,NE,55,6.0,10.0,64,-99.99,,,-99.99,,2013-06-06 05:32:00,
2013-06-06 01:42:00,58.0,46.0,-100.00,NE,50,7.0,10.0,64,-99.99,,,-99.99,,2013-06-06 05:42:00,
2013-06-06 01:52:00,58.0,47.0,-100.00,ENE,70,8.0,11.0,65,-99.99,,,-99.99,,2013-06-06 05:52:00,
2013-06-06 02:02:00,58.0,47.0,-100.00,ENE,60,7.0,12.0,66,-99.99,,,-99.99,,2013-06-06 06:02:00,
2013-06-06 02:12:00,58.0,47.0,-100.00,NE,50,7.0,11.0,66,-99.99,,,-99.99,,2013-06-06 06:12:00,
2013-06-06 02:22:00,58.0,47.0,-100.00,NE,40,8.0,11.0,67,-99.99,,,-99.99,,2013-06-06 06:22:00,
2013-06-06 02:33:00,58.0,47.0,-100.00,NE,45,9.0,13.0,66,-99.99,,,-99.99,,2013-06-06 06:33:00,
2013-06-06 02:42:00,58.0,47.0,-100.00,NE,45,7.0,12.0,66,-99.99,,,-99.99,,2013-06-06 06:42:00,
2013-06-06 02:52:00,58.0,46.0,-100.00,NE,45,8.0,12.0,65,-99.99,,,-99.99,,2013-06-06 06:52:00,
2013-06-06 03:02:00,58.0,46.0,-100.00,NE,55,8.0,12.0,64,-99.99,,,-99.99,,2013-06-06 07:02:00,
2013-06-06 03:12:00,58.0,46.0,-100.00,ENE,60,9.0,13.0,64,-99.99,,,-99.99,,2013-06-06 07:12:00,
2013-06-06 03:22:00,58.0,46.0,-100.00,NE,40,6.0,11.0,65,-99.99,,,-99.99,,2013-06-06 07:22:00,
2013-06-06 03:32:00,58.0,46.0,-100.00,NNE,30,7.0,9.0,65,-99.99,,,-99.99,,2013-06-06 07:32:00,
2013-06-06 03:42:00,58.0,46.0,-100.00,NE,40,8.0,12.0,65,-99.99,,,-99.99,,2013-06-06 07:42:00,
2013-06-06 03:52:00,58.0,46.0,-100.00,NE,45,7.0,11.0,65,-99.99,,,-99.99,,2013-06-06 07:52:00,
2013-06-06 04:02:00,57.0,46.0,-100.00,NE,45,8.0,11.0,66,-99.99,,,-99.99,,2013-06-06 08:02:00,
2013-06-06 04:12:00,58.0,46.0,-100.00,NE,45,7.0,11.0,66,-99.99,,,-99.99,,2013-06-06 08:12:00,
2013-06-06 04:22:00,58.0,46.0,-100.00,NE,55,9.0,13.0,66,-99.99,,,-99.99,,2013-06-06 08:22:00,
2013-06-06 04:32:00,58.0,46.0,-100.00,NE,55,10.0,14.0,66,-99.99,,,-99.99,,2013-06-06 08:32:00,
2013-06-06 04:42:00,58.0,46.0,-100.00,NE,55,10.0,13.0,65,-99.99,,,-99.99,,2013-06-06 08:42:00,
2013-06-06 04:52:00,58.0,46.0,-100.00,ENE,65,9.0,13.0,65,-99.99,,,-99.99,,2013-06-06 08:52:00,
2013-06-06 05:02:00,57.0,46.0,-100.00,NE,50,9.0,12.0,66,-99.99,,,-99.99,,2013-06-06 09:02:00,
2013-06-06 05:12:00,57.0,47.0,-100.00,NE,45,9.0,12.0,67,-99.99,,,-99.99,,2013-06-06 09:12:00,
2013-06-06 05:22:00,57.0,47.0,-100.00,NE,45,9.0,15.0,68,-99.99,,,-99.99,,2013-06-06 09:22:00,
2013-06-06 05:33:00,57.0,47.0,-100.00,NE,40,9.0,14.0,68,-99.99,,,-99.99,,2013-06-06 09:33:00,
2013-06-06 05:43:00,57.0,47.0,-100.00,NE,55,9.0,12.0,68,-99.99,,,-99.99,,2013-06-06 09:43:00,
2013-06-06 05:53:00,57.0,47.0,-100.00,NE,45,8.0,14.0,68,-99.99,,,-99.99,,2013-06-06 09:53:00,
2013-06-06 06:03:00,57.0,47.0,-100.00,NE,50,8.0,12.0,68,-99.99,,,-99.99,,2013-06-06 10:03:00,
2013-06-06 06:12:00,56.0,46.0,-100.00,NE,45,8.0,12.0,68,-99.99,,,-99.99,,2013-06-06 10:12:00,
2013-06-06 06:23:00,56.0,46.0,-100.00,NE,45,7.0,12.0,67,-99.99,,,-99.99,,2013-06-06 10:23:00,
2013-06-06 06:33:00,56.0,46.0,-100.00,NE,55,9.0,13.0,66,-99.99,,,-99.99,,2013-06-06 10:33:00,
2013-06-06 06:42:00,56.0,45.0,-100.00,NE,55,7.0,11.0,66,-99.99,,,-99.99,,2013-06-06 10:42:00,
2013-06-06 06:52:00,56.0,45.0,-100.00,ENE,60,7.0,13.0,65,-99.99,,,-99.99,,2013-06-06 10:52:00,
2013-06-06 07:02:00,56.0,45.0,-100.00,ENE,70,7.0,10.0,64,-99.99,,,-99.99,,2013-06-06 11:02:00,
2013-06-06 07:12:00,56.0,44.0,-100.00,East,80,7.0,14.0,63,-99.99,,,-99.99,,2013-06-06 11:12:00,
2013-06-06 07:22:00,56.0,44.0,-100.00,ENE,75,7.0,12.0,64,-99.99,,,-99.99,,2013-06-06 11:22:00,
2013-06-06 07:32:00,56.0,44.0,-100.00,ENE,75,7.0,14.0,64,-99.99,,,-99.99,,2013-06-06 11:32:00,
2013-06-06 07:42:00,56.0,44.0,-100.00,ENE,70,9.0,14.0,63,-99.99,,,-99.99,,2013-06-06 11:42:00,
2013-06-06 07:52:00,56.0,44.0,-100.00,NE,55,8.0,14.0,62,-99.99,,,-99.99,,2013-06-06 11:52:00,
2013-06-06 08:03:00,56.0,44.0,-100.00,NE,50,9.0,12.0,61,-99.99,,,-99.99,,2013-06-06 12:03:00,
2013-06-06 08:12:00,56.0,44.0,-100.00,NE,50,9.0,14.0,61,-99.99,,,-99.99,,2013-06-06 12:12:00,
2013-06-06 08:23:00,56.0,43.0,-100.00,NE,45,11.0,15.0,61,-99.99,,,-99.99,,2013-06-06 12:23:00,
2013-06-06 08:33:00,57.0,44.0,-100.00,NE,45,9.0,16.0,61,-99.99,,,-99.99,,2013-06-06 12:33:00,
2013-06-06 08:42:00,57.0,44.0,-100.00,NE,45,9.0,13.0,60,-99.99,,,-99.99,,2013-06-06 12:42:00,
2013-06-06 08:52:00,57.0,44.0,-100.00,NE,40,10.0,13.0,60,-99.99,,,-99.99,,2013-06-06 12:52:00,
2013-06-06 09:03:00,57.0,44.0,-100.00,NE,40,11.0,13.0,60,-99.99,,,-99.99,,2013-06-06 13:03:00,
2013-06-06 09:13:00,58.0,44.0,-100.00,NE,55,8.0,12.0,60,-99.99,,,-99.99,,2013-06-06 13:13:00,
2013-06-06 09:23:00,58.0,44.0,-100.00,ENE,60,7.0,12.0,60,-99.99,,,-99.99,,2013-06-06 13:23:00,
2013-06-06 09:33:00,58.0,44.0,-100.00,NE,45,7.0,10.0,60,-99.99,,,-99.99,,2013-06-06 13:33:00,
2013-06-06 09:43:00,58.0,45.0,-100.00,NE,50,5.0,11.0,60,-99.99,,,-99.99,,2013-06-06 13:43:00,
2013-06-06 09:52:00,58.0,45.0,-100.00,ENE,65,7.0,11.0,60,-99.99,,,-99.99,,2013-06-06 13:52:00,
2013-06-06 10:03:00,58.0,45.0,-100.00,NE,50,9.0,11.0,60,-99.99,,,-99.99,,2013-06-06 14:03:00,
2013-06-06 10:13:00,58.0,45.0,-100.00,ENE,60,7.0,10.0,60,-99.99,,,-99.99,,2013-06-06 14:13:00,
2013-06-06 10:23:00,59.0,45.0,-100.00,NE,50,7.0,10.0,59,-99.99,,,-99.99,,2013-06-06 14:23:00,
2013-06-06 10:33:00,59.0,45.0,-100.00,NE,45,7.0,11.0,59,-99.99,,,-99.99,,2013-06-06 14:33:00,
2013-06-06 10:43:00,60.0,45.0,-100.00,NE,40,9.0,13.0,59,-99.99,,,-99.99,,2013-06-06 14:43:00,
2013-06-06 10:52:00,60.0,46.0,-100.00,NE,40,8.0,13.0,58,-99.99,,,-99.99,,2013-06-06 14:52:00,
2013-06-06 11:03:00,60.0,46.0,-100.00,NE,45,7.0,13.0,58,-99.99,,,-99.99,,2013-06-06 15:03:00,
2013-06-06 11:13:00,60.0,46.0,-100.00,NE,50,8.0,13.0,58,-99.99,,,-99.99,,2013-06-06 15:13:00,
2013-06-06 11:23:00,61.0,46.0,-100.00,NE,35,9.0,12.0,59,-99.99,,,-99.99,,2013-06-06 15:23:00,
2013-06-06 11:33:00,61.0,47.0,-100.00,NE,50,7.0,11.0,59,-99.99,,,-99.99,,2013-06-06 15:33:00,
2013-06-06 11:43:00,62.0,47.0,-100.00,ENE,65,9.0,12.0,58,-99.99,,,-99.99,,2013-06-06 15:43:00,
2013-06-06 11:53:00,63.0,48.0,-100.00,NE,45,9.0,11.0,58,-99.99,,,-99.99,,2013-06-06 15:53:00,
2013-06-06 12:03:00,63.0,48.0,-100.00,ENE,60,7.0,11.0,58,-99.99,,,-99.99,,2013-06-06 16:03:00,
2013-06-06 12:13:00,63.0,48.0,-100.00,NNE,25,9.0,11.0,58,-99.99,,,-99.99,,2013-06-06 16:13:00,
2013-06-06 12:23:00,63.0,48.0,-100.00,NE,40,7.0,10.0,58,-99.99,,,-99.99,,2013-06-06 16:23:00,
2013-06-06 12:33:00,63.0,48.0,-100.00,NE,35,7.0,11.0,58,-99.99,,,-99.99,,2013-06-06 16:33:00,
2013-06-06 12:44:00,64.0,49.0,-100.00,NE,45,7.0,11.0,57,-99.99,,,-99.99,,2013-06-06 16:44:00,
2013-06-06 12:52:00,65.0,49.0,-100.00,NE,40,11.0,15.0,55,-99.99,,,-99.99,,2013-06-06 16:52:00,
2013-06-06 13:03:00,66.0,51.0,-100.00,NNE,20,9.0,14.0,56,-99.99,,,-99.99,,2013-06-06 17:03:00,
2013-06-06 13:13:00,67.0,51.0,-100.00,East,90,6.0,11.0,56,-99.99,,,-99.99,,2013-06-06 17:13:00,
2013-06-06 13:23:00,67.0,51.0,-100.00,ENE,75,4.0,12.0,54,-99.99,,,-99.99,,2013-06-06 17:23:00,
2013-06-06 13:33:00,68.0,51.0,-100.00,ENE,70,7.0,14.0,53,-99.99,,,-99.99,,2013-06-06 17:33:00,
2013-06-06 13:43:00,70.0,52.0,-100.00,ESE,110,6.0,9.0,54,-99.99,,,-99.99,,2013-06-06 17:43:00,
2013-06-06 13:52:00,70.0,52.0,-100.00,ESE,110,6.0,9.0,54,-99.99,,,-99.99,,2013-06-06 17:52:00,
2013-06-06 14:03:00,70.0,52.0,-100.00,ENE,75,7.0,12.0,52,-99.99,,,-99.99,,2013-06-06 18:03:00,
2013-06-06 14:13:00,71.0,52.0,-100.00,East,80,7.0,11.0,52,-99.99,,,-99.99,,2013-06-06 18:13:00,
2013-06-06 14:23:00,71.0,52.0,-100.00,East,80,7.0,11.0,51,-99.99,,,-99.99,,2013-06-06 18:23:00,
2013-06-06 14:33:00,71.0,53.0,-100.00,East,100,6.0,11.0,52,-99.99,,,-99.99,,2013-06-06 18:33:00,
2013-06-06 14:43:00,72.0,53.0,-100.00,ESE,115,7.0,13.0,52,-99.99,,,-99.99,,2013-06-06 18:43:00,
2013-06-06 14:53:00,73.0,53.0,-100.00,NNE,20,4.0,12.0,50,-99.99,,,-99.99,,2013-06-06 18:53:00,
2013-06-06 15:03:00,72.0,52.0,-100.00,NE,55,4.0,13.0,49,-99.99,,,-99.99,,2013-06-06 19:03:00,
2013-06-06 15:13:00,73.0,52.0,-100.00,East,90,8.0,14.0,48,-99.99,,,-99.99,,2013-06-06 19:13:00,
2013-06-06 15:23:00,74.0,53.0,-100.00,East,95,7.0,12.0,47,-99.99,,,-99.99,,2013-06-06 19:23:00,
2013-06-06 15:33:00,74.0,53.0,-100.00,East,85,7.0,12.0,48,-99.99,,,-99.99,,2013-06-06 19:33:00,
2013-06-06 15:43:00,74.0,54.0,-100.00,East,95,7.0,12.0,48,-99.99,,,-99.99,,2013-06-06 19:43:00,
2013-06-06 15:52:00,74.0,53.0,-100.00,ENE,65,9.0,12.0,47,-99.99,,,-99.99,,2013-06-06 19:52:00,
2013-06-06 16:03:00,75.0,53.0,-100.00,ENE,70,3.0,12.0,46,-99.99,,,-99.99,,2013-06-06 20:03:00,
2013-06-06 16:13:00,74.0,52.0,-100.00,NE,55,4.0,11.0,45,-99.99,,,-99.99,,2013-06-06 20:13:00,
2013-06-06 16:23:00,76.0,54.0,-100.00,East,100,7.0,10.0,45,-99.99,,,-99.99,,2013-06-06 20:23:00,
2013-06-06 16:33:00,76.0,54.0,-100.00,East,90,7.0,11.0,45,-99.99,,,-99.99,,2013-06-06 20:33:00,
2013-06-06 16:42:00,75.0,54.0,-100.00,East,90,7.0,11.0,46,-99.99,,,-99.99,,2013-06-06 20:42:00,
2013-06-06 16:53:00,74.0,53.0,-100.00,East,90,9.0,13.0,46,-99.99,,,-99.99,,2013-06-06 20:53:00,
2013-06-06 17:03:00,74.0,52.0,-100.00,NNE,30,4.0,11.0,46,-99.99,,,-99.99,,2013-06-06 21:03:00,
2013-06-06 17:13:00,74.0,52.0,-100.00,ENE,70,7.0,12.0,46,-99.99,,,-99.99,,2013-06-06 21:13:00,
2013-06-06 17:23:00,75.0,53.0,-100.00,ENE,60,6.0,11.0,45,-99.99,,,-99.99,,2013-06-06 21:23:00,
2013-06-06 17:33:00,75.0,53.0,-100.00,East,90,7.0,10.0,45,-99.99,,,-99.99,,2013-06-06 21:33:00,
2013-06-06 17:43:00,73.0,52.0,-100.00,ESE,110,7.0,11.0,47,-99.99,,,-99.99,,2013-06-06 21:43:00,
2013-06-06 17:53:00,74.0,52.0,-100.00,ENE,60,10.0,12.0,47,-99.99,,,-99.99,,2013-06-06 21:53:00,
2013-06-06 18:03:00,74.0,52.0,-100.00,NE,45,7.0,12.0,46,-99.99,,,-99.99,,2013-06-06 22:03:00,
2013-06-06 18:13:00,73.0,52.0,-100.00,ENE,75,6.0,13.0,47,-99.99,,,-99.99,,2013-06-06 22:13:00,
2013-06-06 18:23:00,73.0,51.0,-100.00,ENE,60,5.0,12.0,47,-99.99,,,-99.99,,2013-06-06 22:23:00,
2013-06-06 18:33:00,73.0,52.0,-100.00,NNE,25,7.0,11.0,47,-99.99,,,-99.99,,2013-06-06 22:33:00,
2013-06-06 18:43:00,73.0,53.0,-100.00,NNE,30,11.0,14.0,48,-99.99,,,-99.99,,2013-06-06 22:43:00,
2013-06-06 18:53:00,74.0,54.0,-100.00,NNE,30,6.0,12.0,50,-99.99,,,-99.99,,2013-06-06 22:53:00,
2013-06-06 19:03:00,73.0,54.0,-100.00,NNE,25,12.0,16.0,50,-99.99,,,-99.99,,2013-06-06 23:03:00,
2013-06-06 19:13:00,71.0,53.0,-100.00,NNE,30,11.0,17.0,52,-99.99,,,-99.99,,2013-06-06 23:13:00,
2013-06-06 19:22:00,70.0,53.0,-100.00,NE,35,9.0,16.0,54,-99.99,,,-99.99,,2013-06-06 23:22:00,
2013-06-06 19:33:00,69.0,53.0,-100.00,NNE,20,7.0,15.0,55,-99.99,,,-99.99,,2013-06-06 23:33:00,
2013-06-06 19:43:00,69.0,53.0,-100.00,NE,35,9.0,14.0,56,-99.99,,,-99.99,,2013-06-06 23:43:00,
2013-06-06 19:52:00,69.0,53.0,-100.00,NE,35,9.0,13.0,57,-99.99,,,-99.99,,2013-06-06 23:52:00,
2013-06-06 20:02:00,68.0,53.0,-100.00,NNE,30,10.0,14.0,58,-99.99,,,-99.99,,2013-06-07 00:02:00,
2013-06-06 20:12:00,68.0,53.0,-100.00,NNE,30,9.0,14.0,58,-99.99,,,-99.99,,2013-06-07 00:12:00,
2013-06-06 20:22:00,68.0,53.0,-100.00,NNE,30,9.0,14.0,58,-99.99,,,-99.99,,2013-06-07 00:22:00,
2013-06-06 20:32:00,67.0,53.0,-100.00,NNE,25,9.0,12.0,59,-99.99,,,-99.99,,2013-06-07 00:32:00,
2013-06-06 20:42:00,67.0,53.0,-100.00,NNE,30,7.0,14.0,60,-99.99,,,-99.99,,2013-06-07 00:42:00,
2013-06-06 20:52:00,67.0,53.0,-100.00,NNE,25,9.0,11.0,60,-99.99,,,-99.99,,2013-06-07 00:52:00,
2013-06-06 21:03:00,66.0,53.0,-100.00,NNE,30,10.0,13.0,60,-99.99,,,-99.99,,2013-06-07 01:03:00,
2013-06-06 21:12:00,66.0,53.0,-100.00,NE,40,9.0,15.0,61,-99.99,,,-99.99,,2013-06-07 01:12:00,
2013-06-06 21:22:00,66.0,53.0,-100.00,NE,40,7.0,12.0,62,-99.99,,,-99.99,,2013-06-07 01:22:00,
2013-06-06 21:32:00,65.0,52.0,-100.00,NE,45,10.0,14.0,63,-99.99,,,-99.99,,2013-06-07 01:32:00,
2013-06-06 21:42:00,65.0,53.0,-100.00,NE,40,8.0,11.0,64,-99.99,,,-99.99,,2013-06-07 01:42:00,
2013-06-06 21:52:00,64.0,52.0,-100.00,NE,45,9.0,12.0,64,-99.99,,,-99.99,,2013-06-07 01:52:00,
2013-06-06 22:02:00,64.0,52.0,-100.00,NE,40,10.0,16.0,64,-99.99,,,-99.99,,2013-06-07 02:02:00,
2013-06-06 22:12:00,64.0,52.0,-100.00,NE,35,9.0,14.0,65,-99.99,,,-99.99,,2013-06-07 02:12:00,
2013-06-06 22:22:00,63.0,52.0,-100.00,NE,45,9.0,11.0,66,-99.99,,,-99.99,,2013-06-07 02:22:00,
2013-06-06 22:32:00,63.0,52.0,-100.00,NNE,30,7.0,12.0,66,-99.99,,,-99.99,,2013-06-07 02:32:00,
2013-06-06 22:42:00,63.0,52.0,-100.00,NE,40,6.0,9.0,67,-99.99,,,-99.99,,2013-06-07 02:42:00,
2013-06-06 22:52:00,62.0,52.0,-100.00,NE,40,6.0,11.0,69,-99.99,,,-99.99,,2013-06-07 02:52:00,
2013-06-06 23:02:00,62.0,52.0,-100.00,NE,40,4.0,9.0,70,-99.99,,,-99.99,,2013-06-07 03:02:00,
2013-06-06 23:12:00,62.0,52.0,-100.00,NE,35,4.0,6.0,71,-99.99,,,-99.99,,2013-06-07 03:12:00,
2013-06-06 23:22:00,62.0,53.0,-100.00,NE,40,4.0,6.0,72,-99.99,,,-99.99,,2013-06-07 03:22:00,
2013-06-06 23:33:00,61.0,53.0,-100.00,NE,40,5.0,7.0,73,-99.99,,,-99.99,,2013-06-07 03:33:00,
2013-06-06 23:43:00,61.0,53.0,-100.00,NE,50,6.0,9.0,73,-99.99,,,-99.99,,2013-06-07 03:43:00,
2013-06-06 23:53:00,61.0,53.0,-100.00,NE,40,5.0,8.0,74,-99.99,,,-99.99,,2013-06-07 03:53:00,